Retour au catalogue

STARLINK-38081

ActifCommunicationsSSO
NORAD 100153·PAYLOAD·🇺🇸 United States

Lancé Jul 25, 2026 depuis Vandenberg Space Force Base

Loading…

Prochains Passages (prochaines 24 heures)

TLE

FraisSource: Space-Track

Époque: Sep 14, 2026, 23:20 UTC

1 A0153U 26171F   26257.97235489 -.00098130  00000-0 -30649-2 0  9992
2 A0153  97.2835 290.5658 0002213  81.5621 278.5872 15.33565793  8050

Suivez STARLINK-38081 en temps réel avec AllMySat

Download on the App Store